CW2236 Weather Reports


time (UTC)temp
F
wind
direction
speed
knots
gust
knots
rain 1hr
in
rain 24hr
in
rain mn
in
humidity
%
barometer
mb
20260507211602 63 298 12.2 19.1 0.00 0.25 0.22 32 1006.4
20260507210603 63 319 9.6 17.4 0.00 0.26 0.22 35 1006.3
20260507205602 64 290 13.9 21.7 0.00 0.27 0.22 34 1006.1
20260507204602 64 278 9.6 13.9 0.00 0.28 0.22 32 1006.1
20260507203603 64 329 13.0 18.2 0.00 0.28 0.22 30 1006.2
20260507202602 65 304 7.8 13.9 0.00 0.29 0.22 32 1006.4
20260507201603 64 261 6.1 15.6 0.00 0.29 0.22 31 1006.4
20260507195603 64 280 8.7 20.9 0.00 0.29 0.22 31 1006.4
20260507194603 65 282 13.9 19.1 0.00 0.29 0.22 29 1006.5
20260507193603 64 297 7.8 20.0 0.00 0.29 0.22 31 1006.6
20260507192623 64 293 13.0 17.4 0.00 0.29 0.22 30 1006.5
20260507191603 63 275 10.4 23.5 0.00 0.29 0.22 32 1006.7
20260507190623 63 275 11.3 22.6 0.00 0.29 0.22 33 1006.6
20260507183602 64 314 12.2 19.1 0.00 0.29 0.22 35 1007.1
20260507181644 63 319 8.7 20.0 0.00 0.29 0.22 36 1007.0
20260507180603 63 286 16.5 21.7 0.00 0.29 0.22 36 1007.0
20260507175602 63 290 7.0 13.9 0.00 0.29 0.22 35 1007.3
20260507174603 63 294 13.9 18.2 0.00 0.29 0.22 40 1007.1
20260507173602 63 270 12.2 20.9 0.00 0.29 0.22 42 1007.1
20260507172603 62 261 13.0 18.2 0.00 0.29 0.22 41 1007.3
20260507171644 61 279 7.8 20.0 0.00 0.29 0.22 43 1007.5
20260507170603 62 290 13.0 16.5 0.00 0.29 0.22 42 1007.4
20260507165603 62 285 11.3 19.1 0.00 0.29 0.22 45 1007.6
20260507163602 61 265 7.0 18.2 0.00 0.29 0.22 47 1007.7
20260507162603 62 288 12.2 18.2 0.00 0.29 0.22 50 1007.7
20260507161602 61 272 9.6 17.4 0.00 0.29 0.22 53 1007.9
20260507160624 60 273 12.2 16.5 0.00 0.29 0.22 57 1008.0
20260507155603 59 309 7.0 13.0 0.00 0.29 0.22 58 1008.0
20260507153603 59 271 8.7 16.5 0.00 0.29 0.22 63 1008.3
20260507152603 58 284 11.3 17.4 0.00 0.29 0.22 59 1008.3
20260507151645 58 288 7.0 11.3 0.00 0.29 0.22 62 1008.2
20260507150624 57 308 5.2 10.4 0.00 0.29 0.22 65 1008.4
20260507145603 58 317 7.8 11.3 0.00 0.29 0.22 60 1008.5
20260507144603 58 316 8.7 13.0 0.00 0.29 0.22 61 1008.4
20260507143603 57 312 9.6 13.0 0.00 0.29 0.22 65 1008.7
20260507142602 57 298 6.1 9.6 0.00 0.29 0.22 67 1008.9
20260507141603 56 324 7.8 13.9 0.00 0.29 0.22 68 1008.8
20260507140602 56 308 9.6 15.6 0.00 0.29 0.22 72 1008.6
20260507135645 55 316 5.2 13.9 0.00 0.29 0.22 75 1008.9
20260507134603 54 323 9.6 13.9 0.00 0.29 0.22 75 1008.7
20260507133602 54 325 5.2 11.3 0.00 0.29 0.22 79 1008.9
20260507132602 53 324 7.0 10.4 0.00 0.29 0.22 86 1008.8
20260507131603 52 302 7.0 12.2 0.00 0.29 0.22 90 1008.7
20260507130602 51 309 7.0 14.8 0.00 0.29 0.22 92 1009.0
20260507125603 51 303 6.1 11.3 0.00 0.29 0.22 95 1008.8
20260507123603 49 301 7.0 10.4 0.00 0.29 0.22 96 1009.0
20260507122603 48 294 7.8 12.2 0.00 0.29 0.22 96 1009.3
20260507121603 48 291 7.8 11.3 0.00 0.29 0.22 96 1009.0
20260507120602 47 301 7.8 12.2 0.00 0.29 0.22 96 1008.6
20260507115603 47 295 7.8 12.2 0.00 0.29 0.22 96 1008.7
20260507114602 47 302 7.8 10.4 0.00 0.29 0.22 96 1008.7
20260507113624 47 297 7.0 10.4 0.00 0.29 0.22 96 1008.8
20260507112602 46 305 7.0 10.4 0.00 0.29 0.22 96 1008.6
20260507111603 46 304 6.1 10.4 0.00 0.29 0.22 96 1008.6
20260507110602 46 316 7.0 8.7 0.00 0.29 0.22 96 1008.4
20260507105603 46 318 4.3 7.8 0.07 0.29 0.22 96 1008.5
20260507104602 46 317 7.0 10.4 0.07 0.29 0.22 96 1008.1
20260507103603 46 303 6.1 8.7 0.06 0.28 0.21 96 1008.6
20260507102602 46 287 6.1 7.8 0.03 0.25 0.18 95 1008.9
20260507101603 46 310 4.3 10.4 0.02 0.24 0.17 95 1008.6
20260507100602 46 314 8.7 13.0 0.01 0.23 0.16 95 1008.5
20260507095603 46 310 7.8 13.9 0.03 0.21 0.14 95 1008.5
20260507094603 46 320 7.8 14.8 0.03 0.21 0.14 95 1007.9
20260507093603 47 318 9.6 14.8 0.02 0.20 0.13 95 1008.2
20260507092603 47 316 8.7 13.0 0.01 0.19 0.12 95 1008.3
20260507091603 47 310 8.7 14.8 0.01 0.19 0.12 95 1007.9
20260507090602 47 321 12.2 17.4 0.01 0.19 0.12 94 1007.4
20260507085603 48 312 10.4 15.6 0.07 0.17 0.10 94 1007.6
20260507084602 48 307 9.6 13.9 0.06 0.16 0.09 94 1007.7
20260507083603 49 300 9.6 13.9 0.05 0.15 0.08 94 1008.0
20260507082602 49 306 8.7 13.9 0.03 0.13 0.06 94 1007.5
20260507081603 49 320 9.6 13.9 0.02 0.12 0.05 93 1007.4
20260507080602 50 300 8.7 14.8 0.00 0.10 0.03 93 1008.0
20260507075603 50 301 8.7 15.6 0.02 0.09 0.02 92 1007.6
20260507074603 51 307 11.3 21.7 0.02 0.09 0.02 90 1007.6
20260507073603 52 305 12.2 17.4 0.00 0.07 0.00 89 1007.7
20260507072603 52 320 10.4 14.8 0.00 0.07 0.00 91 1006.8
20260507071623 52 311 10.4 13.0 0.00 0.07 0.00 92 1006.9
20260507070603 52 311 9.6 13.9 0.00 0.07 0.00 92 1006.7
20260507065602 52 315 8.7 14.8 0.00 0.07 0.00 92 1006.9
20260507064603 53 308 10.4 15.6 0.00 0.07 0.00 93 1006.9
20260507061603 53 291 8.7 13.9 0.00 0.07 0.00 94 1006.9
20260507060602 54 304 9.6 14.8 0.00 0.07 0.00 95 1007.1
20260507054603 55 301 9.6 14.8 0.00 0.07 0.00 96 1007.2
20260507053603 56 288 8.7 13.9 0.00 0.07 0.00 97 1007.5
20260507052623 56 285 9.6 14.8 0.00 0.07 0.00 97 1007.6
20260507051603 56 277 9.6 13.9 0.00 0.07 0.00 97 1007.5
20260507050602 57 275 7.8 13.0 0.00 0.07 0.00 97 1007.3
20260507045603 57 278 8.7 12.2 0.01 0.07 0.07 97 1007.5
20260507044602 57 269 8.7 13.9 0.01 0.07 0.07 97 1007.4
20260507043603 57 261 11.3 14.8 0.01 0.07 0.07 97 1007.5
20260507042602 57 252 8.7 13.9 0.01 0.07 0.07 97 1007.3
20260507041603 57 246 9.6 15.6 0.01 0.07 0.07 97 1007.4
20260507040644 57 246 9.6 13.9 0.00 0.06 0.06 97 1007.3
20260507035603 57 248 7.8 15.6 0.00 0.06 0.06 97 1007.5
20260507034602 56 230 11.3 18.2 0.00 0.06 0.06 97 1007.5
20260507032602 56 217 12.2 18.2 0.00 0.06 0.06 97 1007.4
20260507031624 56 222 12.2 17.4 0.00 0.06 0.06 97 1007.2
20260507030603 56 221 10.4 16.5 0.00 0.06 0.06 97 1007.1
20260507025603 56 215 11.3 17.4 0.00 0.06 0.06 97 1007.0
20260507024602 56 213 12.2 18.2 0.00 0.06 0.06 97 1006.9
20260507023603 56 212 12.2 19.1 0.00 0.06 0.06 97 1007.0
20260507021603 56 211 12.2 20.0 0.00 0.06 0.06 96 1007.0
20260507020602 56 209 13.0 19.1 0.00 0.06 0.06 96 1007.1
20260507015603 55 197 12.2 19.1 0.00 0.06 0.06 96 1007.0
20260507014602 55 198 12.2 20.9 0.00 0.06 0.06 96 1007.2
20260507013603 55 202 13.0 20.0 0.00 0.06 0.06 96 1007.3
20260507012603 55 205 12.2 18.2 0.00 0.06 0.06 96 1007.5
20260507011603 55 212 13.0 19.1 0.00 0.06 0.06 96 1007.6
20260507010603 55 212 11.3 17.4 0.00 0.06 0.06 96 1007.6
20260507005603 55 216 13.0 20.0 0.00 0.06 0.06 96 1007.7
20260507004602 55 207 11.3 21.7 0.00 0.06 0.06 96 1007.6
20260507002624 55 201 15.6 29.5 0.00 0.06 0.06 96 1007.4
20260507001602 55 192 17.4 26.9 0.00 0.06 0.06 96 1007.4
20260507000603 55 200 14.8 27.8 0.00 0.06 0.06 96 1007.3
20260506235624 55 195 15.6 28.7 0.00 0.06 0.06 96 1007.3
20260506234624 55 191 18.2 28.7 0.00 0.06 0.06 96 1007.2
20260506233603 55 193 16.5 28.7 0.00 0.06 0.06 95 1007.1
20260506232602 55 191 17.4 26.9 0.00 0.06 0.06 95 1007.2
20260506231603 55 184 19.1 30.4 0.00 0.06 0.06 95 1007.2
20260506230602 55 193 14.8 24.3 0.00 0.06 0.06 95 1007.3
20260506225602 55 191 13.9 25.2 0.01 0.06 0.06 95 1007.4
20260506224603 56 188 13.0 26.9 0.01 0.06 0.06 95 1007.3
20260506223602 56 188 13.9 31.3 0.01 0.06 0.06 95 1007.4
20260506222645 56 189 13.0 29.5 0.00 0.05 0.05 95 1007.6
20260506221603 56 187 16.5 26.9 0.00 0.05 0.05 94 1007.6
20260506220603 56 188 15.6 30.4 0.00 0.05 0.05 94 1007.8
20260506215602 57 194 17.4 27.8 0.02 0.05 0.05 94 1007.8
20260506214603 57 196 15.6 25.2 0.01 0.04 0.04 94 1007.9
20260506213602 57 191 16.5 26.9 0.01 0.04 0.04 93 1007.9
20260506212602 57 197 16.5 29.5 0.01 0.04 0.04 93 1007.9